W6CX Weather Reports


time (UTC)temp
F
wind
direction
speed
knots
gust
knots
rain 1hr
in
rain 24hr
in
rain mn
in
humidity
%
barometer
mb
20260506154551 51 0 0.0 1.7 0.00 0.01 0.00 89 1022.8
20260506153047 50 0 0.0 5.2 0.00 0.01 0.00 89 1022.9
20260506151550 50 0 0.0 1.7 0.00 0.01 0.00 89 1022.8
20260506150047 50 0 0.0 0.9 0.00 0.01 0.00 89 1022.6
20260506144547 50 0 0.0 2.6 0.00 0.01 0.00 90 1022.5
20260506143050 49 109 0.9 4.3 0.00 0.01 0.00 92 1022.3
20260506141549 48 113 0.9 4.3 0.00 0.01 0.00 92 1022.1
20260506140049 47 338 0.0 6.1 0.00 0.01 0.00 92 1022.0
20260506134545 47 120 1.7 9.6 0.00 0.01 0.00 92 1021.8
20260506133046 47 70 3.5 9.6 0.00 0.01 0.00 92 1021.6
20260506131550 46 360 5.2 10.4 0.00 0.01 0.00 92 1021.5
20260506130058 46 350 7.8 10.4 0.00 0.01 0.00 91 1021.4
20260506124554 47 32 4.3 9.6 0.00 0.01 0.00 91 1021.4
20260506123050 47 330 5.2 7.8 0.00 0.01 0.00 90 1021.4
20260506121547 48 18 1.7 4.3 0.00 0.01 0.00 90 1021.4
20260506120052 48 0 0.0 2.6 0.00 0.01 0.00 91 1021.3
20260506114550 48 0 0.0 1.7 0.00 0.02 0.00 92 1021.3
20260506113054 48 20 0.0 3.5 0.00 0.02 0.00 94 1021.1
20260506111549 48 27 0.0 2.6 0.00 0.02 0.00 95 1021.0
20260506110055 48 0 0.0 3.5 0.00 0.02 0.00 96 1020.8
20260506104553 48 0 0.0 2.6 0.00 0.04 0.00 96 1020.8
20260506103049 47 0 0.0 0.9 0.00 0.04 0.00 95 1020.8
20260506101552 46 97 0.0 1.7 0.00 0.04 0.00 95 1020.7
20260506094550 46 123 1.7 3.5 0.00 0.04 0.00 95 1020.6
20260506093049 46 104 0.9 3.5 0.00 0.04 0.00 96 1020.6
20260506091547 47 77 0.9 5.2 0.00 0.04 0.00 96 1020.6
20260506090052 47 0 0.0 0.9 0.00 0.04 0.00 96 1020.6
20260506084619 47 0 0.0 0.0 0.00 0.10 0.00 96 1020.7
20260506083046 47 0 0.0 1.7 0.00 0.10 0.00 96 1020.7
20260506081555 46 137 0.0 3.5 0.00 0.10 0.00 96 1020.8
20260506073051 46 0 0.0 0.9 0.00 0.13 0.00 96 1020.5
20260506071545 46 0 0.0 1.7 0.00 0.13 0.00 96 1020.5
20260506061548 46 0 0.0 1.7 0.00 0.15 0.13 96 1019.9
20260506044637 46 123 1.7 3.5 0.00 0.15 0.13 95 1019.6
20260506043049 46 125 0.9 2.6 0.00 0.15 0.13 95 1019.4
20260506041558 46 128 0.0 0.9 0.00 0.15 0.13 95 1019.0
20260506040050 47 0 0.0 0.0 0.00 0.15 0.13 95 1018.9
20260506034621 47 0 0.0 0.9 0.00 0.15 0.13 95 1018.9
20260506033043 47 0 0.0 1.7 0.00 0.15 0.13 95 1018.8
20260506031545 47 0 0.0 0.9 0.00 0.15 0.13 95 1018.4
20260506030051 47 0 0.0 0.0 0.00 0.15 0.13 95 1018.4
20260506024550 48 0 0.0 0.0 0.00 0.15 0.13 95 1018.2
20260506023104 47 0 0.0 0.0 0.00 0.15 0.13 94 1018.1
20260506021544 48 0 0.0 1.7 0.00 0.15 0.13 94 1018.0
20260506020048 48 0 0.0 0.0 0.00 0.15 0.13 94 1018.1
20260506014549 48 0 0.0 0.9 0.00 0.15 0.13 94 1017.8
20260506013049 48 0 0.0 0.9 0.00 0.15 0.13 94 1017.7
20260506011606 49 0 0.0 1.7 0.00 0.15 0.13 94 1017.8
20260506010054 49 0 0.0 2.6 0.00 0.15 0.13 93 1017.8
20260506004611 50 309 0.0 3.5 0.00 0.15 0.13 93 1017.8
20260506003103 49 0 0.9 2.6 0.00 0.15 0.13 93 1017.6
20260506001554 49 0 0.9 1.7 0.00 0.15 0.13 94 1017.6
20260506000050 49 27 0.0 1.7 0.00 0.15 0.13 94 1017.5
20260505234604 48 299 1.7 4.3 0.00 0.15 0.13 93 1017.6
20260505233052 49 0 0.0 2.6 0.00 0.15 0.13 94 1017.5
20260505231551 49 358 0.9 4.3 0.00 0.15 0.13 93 1017.7
20260505230053 50 0 0.0 2.6 0.00 0.15 0.13 94 1017.6
20260505224551 49 91 0.9 3.5 0.00 0.15 0.13 94 1017.6
20260505223048 48 0 0.0 2.6 0.00 0.15 0.13 93 1017.6
20260505221549 49 0 0.0 0.9 0.00 0.15 0.13 93 1017.7
20260505220059 49 0 0.0 2.6 0.00 0.15 0.13 93 1017.8
20260505214601 49 0 0.0 3.5 0.00 0.15 0.13 93 1017.7
20260505213054 48 0 0.0 2.6 0.00 0.15 0.13 93 1017.8
20260505211554 48 96 0.9 3.5 0.00 0.15 0.13 93 1017.8
20260505210046 48 0 0.9 4.3 0.00 0.15 0.13 92 1017.7
20260505204549 49 0 0.0 2.6 0.00 0.15 0.13 94 1017.9
20260505203051 48 0 0.9 2.6 0.00 0.15 0.13 93 1017.9
20260505201550 47 286 0.9 3.5 0.00 0.15 0.13 93 1017.9
20260505200049 47 57 1.7 3.5 0.00 0.15 0.13 92 1017.9
20260505194549 47 127 0.0 2.6 0.00 0.15 0.13 93 1017.9
20260505193055 47 332 1.7 6.1 0.00 0.15 0.13 93 1017.9
20260505191553 47 144 0.9 4.3 0.00 0.15 0.13 93 1017.5
20260505190049 46 148 0.9 5.2 0.00 0.15 0.13 93 1017.6
20260505184549 46 145 0.9 6.1 0.00 0.15 0.13 93 1017.6
20260505183047 46 132 1.7 7.0 0.00 0.15 0.13 94 1017.0
20260505181546 45 77 1.7 9.6 0.00 0.15 0.13 94 1017.0
20260505180053 44 312 2.6 9.6 0.00 0.15 0.13 94 1016.9
20260505174604 43 109 5.2 11.3 0.01 0.15 0.13 94 1016.6
20260505173049 43 187 4.3 10.4 0.01 0.15 0.13 94 1016.5
20260505171542 42 101 4.3 12.2 0.01 0.15 0.13 94 1016.2
20260505170110 42 140 5.2 14.8 0.01 0.15 0.13 94 1016.5
20260505164549 42 159 7.0 15.6 0.00 0.14 0.12 94 1016.3
20260505163046 42 141 6.1 13.9 0.00 0.14 0.12 94 1016.1
20260505161554 41 213 7.0 13.0 0.00 0.14 0.12 94 1016.0